Wind_Speed
28 27 23 21 19 19 20 20 19 20 20 21 21 21 23 23 23 24 25 25 24 25 24 24 26 25 22 20 19 19 19 17 15 14 14 13 12 12 13 14 15 16 16
29 29 24 21 20 19 20 20 20 21 21 22 22 22 24 24 24 25 25 26 27 27 27 26 27 28 26 23 21 20 20 18 17 16 15 13 13 11 11 12 13 14 15
30 31 25 22 22 20 20 20 20 21 22 22 22 23 23 24 25 26 27 28 29 29 28 27 27 29 28 25 23 21 22 21 20 19 17 16 14 12 11 11 11 12 13
30 32 27 24 23 22 21 20 21 21 21 21 22 23 23 25 27 28 29 30 31 30 28 27 27 28 28 25 22 23 23 22 21 21 20 19 17 14 12 11 10 9 10
29 31 28 25 24 23 21 20 20 20 20 22 23 24 26 28 30 30 30 31 31 30 29 27 26 26 25 23 22 23 24 22 22 22 22 20 19 18 15 13 11 9 8
28 30 28 26 24 22 20 20 20 21 22 23 24 26 27 29 29 30 30 30 29 28 27 26 25 24 24 23 21 20 21 20 21 22 23 22 21 21 19 16 13 11 9
26 26 24 23 21 19 18 19 20 22 23 25 26 27 28 28 28 28 28 27 26 25 24 24 24 23 23 24 23 21 21 21 22 22 24 24 24 24 22 19 16 14 12
20 19 19 19 18 18 19 20 21 22 24 25 26 26 26 26 26 25 25 24 22 21 21 21 21 21 22 23 24 23 23 23 24 25 26 26 26 26 25 23 20 18 17
17 16 16 17 17 18 20 21 22 22 23 24 24 25 24 23 23 22 22 21 19 18 18 19 18 18 19 21 22 23 24 24 25 27 28 27 28 27 28 27 25 23 21
16 17 18 17 17 19 21 23 22 21 21 22 23 22 22 22 21 20 19 18 17 17 17 17 17 17 17 18 19 21 22 23 24 26 28 29 30 29 29 29 27 25 24
17 17 18 16 17 19 20 21 21 21 21 21 21 22 23 23 21 19 17 16 16 16 16 16 17 17 17 17 18 18 20 21 23 26 29 31 33 33 32 31 30 28 27
19 19 20 20 19 20 20 21 21 21 21 21 22 22 23 24 23 20 18 16 16 16 17 17 17 18 18 18 18 18 18 19 20 21 26 31 33 34 36 35 33 31 29
17 19 20 19 20 21 20 20 21 22 22 22 24 25 26 25 24 21 19 18 18 18 18 19 19 20 19 19 19 20 20 20 20 20 20 24 31 35 37 36 33 31 30
19 20 20 19 19 20 19 20 23 23 23 24 26 27 27 25 23 21 20 20 20 19 20 20 21 22 22 22 22 21 22 22 21 20 19 20 24 32 36 35 32 31 30
23 23 22 20 20 20 21 22 24 26 25 25 26 26 25 23 22 21 21 21 21 20 20 20 22 23 23 24 24 24 23 22 22 21 20 19 20 24 31 34 33 32 31
23 23 22 20 20 21 22 24 25 26 26 25 25 24 23 24 23 22 22 22 22 22 21 21 21 22 24 25 26 26 25 25 24 23 21 21 21 21 23 27 29 30 30
16 18 18 18 19 21 22 22 23 23 23 22 22 21 22 22 22 22 21 22 22 22 23 23 23 23 24 25 26 27 27 26 26 25 24 23 22 22 22 23 25 27 28
8 10 11 13 14 15 15 16 17 18 19 20 20 20 21 22 22 23 22 23 23 23 24 24 24 24 24 26 27 27 27 27 27 27 26 25 25 24 24 24 25 25 27
1 2 3 5 7 10 12 14 15 16 18 19 20 21 22 23 23 23 23 23 23 23 23 23 23 24 25 26 27 27 28 28 29 29 28 27 26 26 26 26 25 26 26
3 3 4 7 9 11 13 15 16 17 18 20 21 22 23 23 23 23 22 22 21 20 19 19 20 21 22 24 26 27 27 28 29 30 30 29 27 25 25 25 25 25 25
4 6 8 10 12 13 14 15 16 17 18 20 21 22 22 21 21 20 19 18 18 17 17 18 20 22 23 24 26 27 28 28 28 28 29 29 28 26 25 24 24 24 25
7 9 11 12 12 13 13 14 15 17 18 20 21 21 20 19 18 17 16 15 15 16 19 21 23 26 28 29 30 30 30 30 29 29 29 28 27 26 25 24 24 23 24
9 10 11 11 11 12 12 14 16 17 19 20 20 20 19 18 16 15 14 14 16 18 21 23 26 29 32 33 34 33 33 32 30 29 28 26 26 25 25 24 23 22 22
9 9 10 10 10 12 13 14 16 17 17 18 19 19 18 17 15 14 14 15 16 19 21 23 25 27 29 30 30 31 31 31 29 28 26 24 23 23 23 22 21 21 21
10 10 10 10 11 12 13 15 16 17 18 19 21 20 18 16 14 13 13 15 17 19 19 21 22 22 23 22 22 23 25 25 25 24 23 23 22 22 22 22 22 21 21
10 10 10 11 12 13 14 16 17 18 20 21 21 20 17 14 13 13 13 15 16 17 17 18 18 18 16 11 9 12 16 18 18 18 18 18 19 19 20 21 21 21 21
Wind_Direction
280 279 281 281 280 281 285 291 295 295 297 302 305 304 303 303 300 297 296 294 292 291 291 292 294 296 294 283 267 254 248 246 243 241 242 246 252 258 250 242 241 241 239
271 275 278 277 278 279 283 288 293 295 297 301 303 304 305 303 300 298 295 292 289 288 288 288 288 289 289 283 268 251 242 240 239 238 237 241 246 253 251 243 240 238 235
264 270 271 273 274 275 279 285 289 293 297 300 303 304 302 301 300 298 296 292 289 287 287 286 285 283 282 280 268 250 238 235 234 233 234 235 238 244 245 241 238 236 234
255 263 266 268 271 274 278 282 286 292 296 300 302 303 303 303 302 301 297 293 291 288 286 284 281 279 277 274 267 252 241 234 233 232 232 233 234 234 235 236 235 235 236
251 257 261 264 267 270 274 279 286 292 297 302 305 306 305 305 304 302 298 293 290 287 283 280 278 275 272 267 262 253 244 238 234 234 234 232 230 229 231 233 232 231 235
250 252 255 258 261 264 270 280 289 295 301 304 306 306 305 304 302 299 297 295 291 285 280 276 274 269 265 259 260 252 247 243 240 238 236 233 229 226 227 230 232 231 233
250 252 254 256 258 262 271 283 292 298 302 305 305 304 304 303 300 297 297 296 294 287 280 275 272 265 259 256 254 251 250 250 250 248 241 235 232 228 226 228 230 233 237
254 254 255 257 259 267 277 286 292 297 300 301 301 302 303 303 300 298 296 295 293 287 279 274 270 264 257 253 251 252 254 255 254 252 247 239 236 232 229 228 229 233 237
265 261 261 261 266 274 282 288 292 294 296 297 299 302 305 306 303 299 297 294 291 285 280 276 271 266 258 252 251 252 255 256 256 253 249 240 234 235 233 231 231 234 236
257 255 256 255 267 277 284 289 291 293 295 296 297 300 306 310 308 303 299 295 289 284 282 278 273 270 265 257 254 256 255 257 256 253 251 243 233 237 236 233 232 235 236
261 264 269 273 276 279 283 287 290 293 296 295 296 300 305 310 310 304 300 296 289 282 279 276 272 270 267 263 261 262 258 259 259 257 252 246 239 236 239 236 234 237 238
257 266 274 279 281 281 282 284 288 294 296 295 297 302 305 306 305 301 297 294 287 279 274 272 270 269 266 265 264 265 264 265 264 264 255 248 241 237 237 238 236 236 237
259 267 273 278 280 280 283 285 291 294 295 295 299 303 304 303 300 294 293 291 287 280 273 268 268 268 267 266 266 266 267 268 267 266 261 251 241 236 234 237 237 237 237
268 273 276 275 276 278 283 286 290 294 294 296 299 303 302 301 297 293 291 290 288 282 276 270 267 267 266 265 265 265 265 265 267 266 263 255 243 237 235 236 237 238 239
268 269 270 271 271 273 277 282 286 289 293 295 298 301 301 300 298 296 293 290 288 285 279 273 269 266 265 264 264 263 262 262 263 263 260 255 249 243 239 238 238 240 240
264 263 261 263 266 269 274 279 283 287 291 294 297 299 301 300 297 295 292 290 288 287 283 277 271 267 265 263 261 260 259 259 260 260 258 255 250 246 244 241 240 240 239
253 253 254 259 265 271 276 280 283 286 291 295 297 298 301 299 297 295 292 289 287 287 285 281 274 269 266 264 262 261 259 257 256 257 256 255 253 251 249 248 248 247 243
244 251 257 265 272 278 283 287 289 292 294 296 298 300 300 297 296 294 291 288 286 285 282 279 275 269 266 265 265 263 261 258 255 254 253 253 253 253 253 252 252 252 250
192 268 283 292 297 299 300 300 300 298 297 298 301 302 301 298 296 294 291 289 287 284 280 277 274 270 265 264 265 265 263 261 257 254 252 251 251 251 251 251 250 250 250
50 1 331 319 314 311 309 308 307 305 303 302 302 302 302 300 298 296 293 290 287 283 279 277 275 273 269 266 266 265 263 262 260 256 252 251 251 251 250 249 249 249 249
5 341 329 323 318 315 314 313 312 310 307 307 307 307 306 303 301 297 294 291 286 283 281 279 278 275 272 270 268 265 263 261 259 256 252 249 248 250 250 247 246 247 250
347 334 326 320 317 317 317 317 317 316 315 316 315 313 309 306 303 301 297 293 290 288 286 284 282 279 276 272 269 265 261 258 257 254 251 246 245 246 248 248 247 250 253
343 334 327 323 323 323 322 321 321 322 322 322 321 318 314 311 308 305 302 300 298 297 295 292 289 286 281 275 269 263 258 254 251 249 246 242 241 242 244 245 247 250 254
342 334 328 327 327 326 324 323 323 324 324 326 328 325 321 316 312 308 306 307 308 308 306 302 300 295 287 279 269 260 252 247 243 241 237 234 235 238 240 242 245 249 253
337 331 328 327 327 327 328 328 328 327 327 328 330 328 322 318 314 311 311 314 316 317 317 316 315 309 300 286 269 252 240 234 232 231 229 229 232 235 238 242 245 248 252
339 335 332 330 330 331 333 334 332 330 328 327 327 326 322 316 312 312 314 319 323 327 330 331 333 332 324 305 266 229 213 211 214 218 221 226 232 237 240 242 243 246 251
Height
5852 5852 5853 5853 5853 5853 5852 5851 5850 5849 5848 5848 5847 5846 5845 5845 5844 5843 5842 5841 5841 5841 5840 5839 5838 5838 5838 5838 5838 5838 5839 5840 5841 5842 5843 5844 5845 5846 5847 5849 5851 5852 5854
5846 5846 5849 5849 5849 5849 5848 5847 5846 5845 5844 5844 5843 5842 5841 5840 5839 5838 5837 5836 5835 5835 5835 5835 5833 5833 5833 5833 5833 5834 5835 5836 5837 5839 5839 5841 5843 5844 5845 5846 5848 5849 5851
5840 5840 5843 5844 5844 5844 5843 5842 5842 5841 5840 5839 5838 5837 5836 5835 5833 5832 5831 5830 5829 5828 5829 5829 5828 5827 5826 5827 5827 5829 5830 5831 5833 5835 5837 5838 5839 5840 5842 5843 5845 5847 5848
5834 5833 5836 5838 5838 5838 5837 5837 5837 5836 5836 5835 5834 5832 5831 5829 5828 5826 5824 5823 5821 5821 5821 5821 5821 5820 5820 5821 5821 5823 5824 5826 5828 5830 5833 5835 5837 5838 5839 5841 5843 5844 5846
5827 5827 5829 5831 5831 5832 5832 5832 5832 5832 5831 5830 5828 5827 5825 5823 5821 5819 5818 5816 5814 5813 5813 5813 5813 5813 5813 5814 5815 5816 5818 5821 5822 5825 5827 5830 5833 5835 5837 5839 5841 5842 5844
5820 5820 5822 5824 5825 5826 5826 5827 5827 5826 5825 5824 5823 5821 5819 5817 5815 5813 5811 5809 5807 5806 5806 5806 5806 5806 5807 5808 5809 5810 5813 5815 5817 5819 5822 5825 5828 5831 5833 5836 5838 5840 5841
5812 5813 5816 5817 5819 5820 5821 5822 5821 5821 5820 5818 5816 5815 5813 5811 5809 5807 5805 5802 5800 5799 5799 5799 5799 5800 5801 5802 5804 5805 5808 5810 5812 5815 5817 5820 5824 5826 5829 5832 5835 5837 5839
5806 5808 5811 5812 5814 5815 5816 5816 5816 5815 5814 5812 5811 5809 5807 5805 5803 5801 5799 5796 5795 5793 5793 5793 5793 5794 5795 5797 5798 5800 5802 5804 5807 5809 5811 5815 5818 5821 5825 5828 5831 5834 5836
5801 5803 5805 5807 5809 5810 5811 5811 5811 5810 5808 5807 5805 5803 5802 5800 5797 5795 5793 5791 5789 5788 5788 5788 5788 5789 5790 5791 5793 5795 5796 5798 5800 5803 5805 5807 5810 5815 5819 5822 5826 5829 5831
5794 5796 5797 5800 5803 5804 5805 5805 5805 5804 5803 5801 5800 5798 5797 5795 5792 5790 5788 5786 5785 5784 5784 5784 5785 5785 5786 5787 5788 5789 5791 5792 5794 5796 5798 5801 5803 5808 5813 5816 5820 5823 5826
5792 5793 5792 5793 5797 5798 5799 5799 5799 5798 5798 5796 5795 5794 5792 5789 5787 5785 5784 5782 5781 5781 5780 5781 5781 5782 5782 5783 5783 5784 5785 5787 5788 5789 5791 5793 5796 5799 5805 5809 5813 5817 5820
5787 5789 5790 5791 5792 5793 5794 5794 5794 5793 5793 5791 5790 5788 5786 5784 5783 5781 5780 5778 5777 5777 5777 5777 5777 5777 5778 5778 5779 5779 5780 5781 5782 5783 5784 5786 5788 5792 5796 5801 5805 5809 5813
5783 5785 5786 5787 5787 5788 5788 5788 5789 5788 5787 5785 5784 5783 5781 5779 5777 5776 5775 5774 5773 5773 5772 5773 5773 5773 5773 5774 5774 5774 5775 5776 5777 5778 5778 5779 5781 5784 5787 5792 5797 5801 5804
5778 5780 5781 5782 5782 5783 5783 5783 5783 5782 5781 5780 5778 5776 5775 5773 5772 5771 5770 5769 5768 5767 5767 5767 5767 5768 5768 5768 5768 5769 5770 5771 5772 5772 5773 5773 5774 5776 5779 5784 5789 5793 5797
5772 5774 5775 5776 5777 5778 5778 5778 5777 5776 5775 5774 5772 5770 5769 5768 5767 5765 5764 5763 5762 5762 5761 5761 5761 5761 5761 5762 5762 5763 5764 5765 5766 5767 5768 5768 5769 5770 5773 5777 5782 5785 5789
5766 5768 5769 5770 5771 5772 5773 5772 5771 5770 5769 5768 5767 5765 5764 5762 5761 5760 5759 5757 5756 5755 5755 5754 5754 5754 5755 5755 5755 5756 5757 5759 5760 5761 5762 5763 5765 5766 5767 5770 5774 5778 5781
5761 5762 5763 5765 5766 5767 5767 5766 5766 5764 5763 5763 5761 5760 5759 5757 5755 5754 5753 5751 5750 5749 5748 5747 5747 5747 5747 5747 5748 5749 5750 5751 5753 5755 5756 5758 5759 5761 5763 5765 5768 5771 5774
5757 5759 5761 5762 5762 5763 5762 5762 5761 5760 5759 5758 5756 5755 5753 5752 5750 5748 5746 5745 5743 5742 5740 5740 5739 5739 5740 5740 5740 5741 5743 5744 5746 5748 5750 5752 5754 5755 5757 5759 5762 5764 5767
5757 5758 5759 5760 5760 5760 5760 5759 5758 5757 5755 5753 5752 5750 5748 5746 5744 5742 5739 5738 5736 5735 5734 5733 5732 5732 5732 5732 5732 5734 5735 5736 5738 5740 5742 5745 5747 5749 5750 5752 5755 5757 5760
5757 5757 5758 5758 5758 5758 5757 5755 5754 5753 5751 5749 5747 5745 5743 5740 5737 5735 5733 5731 5730 5729 5728 5727 5726 5725 5725 5725 5725 5726 5727 5728 5729 5731 5734 5736 5739 5741 5743 5745 5748 5750 5753
5756 5757 5756 5756 5755 5754 5753 5751 5750 5749 5747 5745 5743 5740 5737 5735 5732 5729 5727 5726 5724 5723 5723 5721 5720 5719 5719 5718 5718 5718 5718 5719 5721 5723 5725 5728 5731 5733 5736 5739 5741 5743 5745
5756 5755 5754 5753 5752 5751 5750 5748 5747 5745 5743 5740 5738 5735 5732 5729 5727 5725 5723 5721 5720 5719 5717 5716 5714 5712 5710 5709 5709 5708 5709 5711 5712 5714 5717 5720 5723 5725 5728 5731 5734 5736 5738
5755 5754 5753 5751 5750 5749 5747 5745 5744 5741 5739 5737 5734 5731 5728 5725 5723 5721 5719 5717 5715 5713 5711 5708 5705 5702 5699 5697 5697 5697 5699 5701 5704 5706 5709 5712 5715 5718 5721 5724 5727 5729 5731
5755 5753 5752 5750 5749 5747 5745 5743 5741 5738 5736 5733 5730 5727 5724 5721 5719 5717 5715 5713 5710 5708 5704 5701 5696 5692 5687 5684 5683 5684 5687 5691 5695 5698 5702 5706 5709 5712 5716 5718 5721 5723 5725
5755 5753 5751 5749 5747 5745 5743 5740 5737 5735 5733 5730 5727 5724 5720 5718 5715 5713 5711 5709 5706 5703 5699 5694 5688 5683 5677 5673 5671 5672 5677 5682 5688 5692 5696 5700 5704 5707 5710 5712 5715 5717 5718
5754 5752 5750 5748 5746 5743 5741 5738 5735 5732 5730 5727 5723 5720 5717 5715 5712 5710 5708 5705 5702 5698 5694 5689 5683 5677 5671 5667 5665 5666 5671 5677 5683 5688 5692 5695 5699 5701 5704 5706 5709 5711 5712